Powrót do katalogu

STARLINK-33773

AktywnyŁącznośćVLEO
NORAD 63713·PAYLOAD·🇺🇸 United States

Wystrzelony Apr 28, 2025 z Vandenberg Space Force Base

Loading…

Następne Przeloty (najbliższe 24 godziny)

TLE

ŚwieżeSource: CelesTrak SupGP

Epoka: Sep 15, 2026, 02:19 UTC

1 63713C 25087S   26258.09701389 -.00029367  00000+0 -94447-3 0  2589
2 63713  53.1595  58.0847 0001181  82.0406 239.7693 15.31713153    13

Śledź STARLINK-33773 w czasie rzeczywistym z AllMySat

Download on the App Store